Wind_Speed
109 108 107 105 105 104 103 102 102 101 101 100 99 98 97 97 96 95 95 94 94 93 93 92 92 91 91 90 90 89 89 88 88 87 86 86 85 85 84 84 84 84 84 84 84 84 83 83 83 82 82 82 82 82 82 81 81 81 81 81 81 80 80 80 80 80 79 79 79 79 78 78 77 77 77 76 76 75 74 74 73 73 73 72 72 71
107 106 105 104 103 103 103 102 101 100 100 99 98 97 97 96 96 95 94 94 93 93 92 92 91 91 91 90 90 89 89 88 87 87 86 85 85 84 84 84 84 84 84 84 83 83 83 83 82 82 82 82 81 81 81 81 81 80 80 80 80 80 80 80 79 79 79 79 79 79 78 78 78 77 77 76 76 75 75 74 74 73 73 73 72 72
105 105 104 103 102 102 102 101 100 99 99 98 97 97 96 95 95 94 94 93 93 92 92 91 91 90 90 90 89 89 88 88 87 86 85 85 84 84 84 84 83 83 83 83 83 83 83 82 82 82 81 81 81 81 81 80 80 80 80 80 79 79 79 79 79 79 79 79 79 78 78 78 78 77 77 76 76 76 75 75 74 74 73 73 72 72
104 104 103 102 102 101 101 100 100 99 98 97 97 96 95 95 94 94 93 93 92 92 91 91 90 90 90 89 89 88 88 87 86 85 85 84 84 84 83 83 83 83 83 83 83 82 82 82 82 81 81 81 81 80 80 80 80 79 79 79 79 79 79 78 78 78 78 78 78 78 78 78 77 77 77 77 76 76 76 75 75 74 74 73 73 72
103 103 102 102 102 101 100 100 99 98 97 97 96 95 95 94 94 93 93 92 92 91 91 90 90 90 89 89 88 88 87 87 86 85 84 84 84 83 83 83 83 83 83 82 82 82 82 81 81 81 80 80 80 80 79 79 79 79 78 78 78 78 78 78 78 78 78 78 78 78 78 77 77 77 77 77 76 76 76 76 75 75 74 74 73 73
103 102 102 101 101 101 100 99 98 98 97 96 96 95 94 94 93 93 92 92 91 91 90 90 89 89 89 88 88 87 87 86 85 85 84 84 83 83 83 83 82 82 82 82 82 81 81 81 81 80 80 80 79 79 79 78 78 78 78 78 77 77 77 77 77 77 77 77 77 77 77 77 77 77 77 77 76 76 76 76 75 75 75 74 74 73
102 102 101 101 100 100 99 99 98 97 96 96 95 94 94 93 92 92 91 91 91 90 90 89 89 88 88 88 87 87 86 86 85 85 84 83 83 83 83 82 82 82 81 81 81 81 81 80 80 80 79 79 79 78 78 78 77 77 77 77 77 77 77 77 77 77 77 77 77 77 77 77 77 77 77 77 76 76 76 76 76 75 75 74 74 73
102 101 101 100 99 99 99 98 97 96 95 95 95 94 93 92 92 91 91 90 90 89 89 88 88 88 87 87 86 86 86 85 85 84 84 83 83 82 82 82 81 81 81 81 80 80 80 80 79 79 79 78 78 78 77 77 77 77 76 76 76 76 76 76 76 76 76 76 76 77 77 77 77 77 77 77 77 76 76 76 76 76 75 75 74 74
101 100 100 99 99 98 98 97 96 95 95 94 93 93 92 92 91 90 90 89 89 88 88 88 87 87 87 86 86 85 85 85 84 84 83 83 82 82 81 81 81 81 80 80 80 79 79 79 79 78 78 77 77 77 77 76 76 76 76 76 75 75 75 76 76 76 76 76 76 76 76 76 77 76 76 76 76 76 76 76 76 76 75 75 74 74
99 99 99 98 97 97 96 96 95 95 94 93 92 92 91 91 90 89 89 88 88 87 87 87 87 86 86 86 85 85 85 84 84 83 83 82 82 81 81 80 80 80 79 79 79 79 78 78 78 77 77 77 76 76 76 76 75 75 75 75 75 75 75 75 75 75 76 76 76 76 76 76 76 76 76 76 76 76 76 76 76 76 75 75 75 74
98 98 97 97 96 96 95 95 94 93 92 92 91 91 90 89 89 88 88 88 87 87 87 86 86 86 85 85 85 84 84 83 83 82 82 81 81 80 80 79 79 79 79 78 78 78 77 77 77 76 76 76 75 75 75 75 75 75 75 75 75 75 75 75 75 75 75 75 76 76 76 76 76 76 76 76 76 76 76 76 76 76 75 75 75 74
96 96 95 95 94 94 93 93 92 92 91 90 90 89 89 88 88 87 87 87 87 86 86 86 85 85 85 84 84 83 83 82 82 81 81 80 80 79 79 78 78 78 78 77 77 77 76 76 76 75 75 75 75 74 74 74 74 74 74 74 74 74 74 75 75 75 75 75 75 76 76 76 76 76 76 76 76 76 76 76 76 76 75 75 75 74
94 94 93 93 92 92 92 91 91 90 90 89 89 88 88 87 87 86 86 86 86 86 85 85 85 84 84 83 82 82 81 81 80 80 79 79 78 78 77 77 77 77 76 76 76 75 75 75 74 74 74 74 74 74 74 74 74 74 74 74 74 74 74 74 75 75 75 75 75 75 76 76 76 76 76 76 76 76 76 76 76 76 75 75 75 74
92 92 91 91 90 90 90 89 89 88 88 88 87 87 86 86 86 85 85 85 85 84 84 84 83 83 82 82 81 80 80 79 78 78 78 77 77 77 76 76 76 75 75 75 74 74 74 74 73 73 73 73 73 73 73 73 73 73 73 74 74 74 74 74 75 75 75 75 75 75 76 76 76 76 76 76 76 76 76 76 76 76 75 75 75 74
90 89 89 88 88 88 88 87 87 87 87 86 86 85 85 85 84 84 83 83 83 83 82 82 81 81 80 80 79 78 78 77 76 76 76 76 76 75 75 74 74 74 74 73 73 73 73 73 72 72 72 72 73 73 73 73 73 73 73 73 74 74 74 74 75 75 75 75 75 76 76 76 76 76 76 77 77 77 77 76 76 76 76 75 75 74
87 87 86 86 86 86 86 86 85 85 85 85 84 83 83 82 82 82 81 81 80 80 80 79 79 79 78 78 77 76 75 75 74 74 74 74 74 74 73 73 73 73 72 72 72 72 72 72 72 72 72 72 72 72 72 72 73 73 73 73 74 74 74 74 75 75 75 75 76 76 76 76 76 77 77 77 77 77 77 77 76 76 76 75 75 75
85 84 84 84 84 84 84 83 83 83 82 82 81 81 80 79 79 79 78 78 77 77 77 76 76 76 76 75 75 74 73 73 72 72 72 72 72 72 72 72 71 71 71 71 71 71 71 71 71 71 71 71 71 72 72 72 72 73 73 73 73 74 74 74 75 75 75 76 76 76 76 76 77 77 77 77 77 77 77 77 76 76 76 76 75 75
82 82 82 82 82 82 81 81 80 80 79 79 78 77 77 76 75 75 74 74 74 73 73 73 73 73 73 72 72 72 72 71 70 70 70 70 70 71 71 70 70 71 71 70 70 70 70 70 70 70 71 71 71 71 72 72 72 72 73 73 73 74 74 75 75 75 76 76 76 76 77 77 77 77 77 77 77 77 77 77 76 76 76 76 75 75
80 80 79 79 79 78 78 77 77 76 75 75 74 73 73 72 72 71 71 70 70 70 70 69 70 70 70 70 70 70 70 69 69 69 69 69 69 70 70 70 70 70 70 70 70 70 70 70 70 70 70 70 71 71 71 72 72 72 73 73 74 74 74 75 75 75 76 76 77 77 77 77 77 78 78 77 77 77 77 77 77 76 76 76 75 75
77 77 76 76 75 74 74 73 73 72 71 71 70 69 68 68 68 67 67 67 67 67 67 66 67 67 67 68 68 68 68 67 67 67 68 68 68 69 69 69 69 69 70 70 69 69 69 69 70 70 70 70 70 71 71 72 72 72 73 73 74 74 74 75 75 76 76 76 77 77 77 78 78 78 78 78 78 78 77 77 77 76 76 76 76 75
74 73 72 72 70 70 69 69 69 68 67 67 66 66 65 65 65 64 64 64 64 64 64 64 64 65 65 66 66 66 66 66 66 66 67 67 68 68 68 68 69 69 69 69 69 69 69 69 69 70 70 70 70 71 71 72 72 72 73 73 74 74 75 75 75 76 76 77 77 77 77 78 78 78 78 78 78 78 77 77 77 77 76 76 76 75
69 69 68 67 66 65 65 65 65 64 64 63 63 62 62 62 62 62 62 62 62 62 62 62 62 63 63 64 64 65 65 65 65 66 66 67 67 68 68 68 68 69 69 69 69 69 69 69 69 69 70 70 70 71 71 72 72 72 73 73 74 74 75 75 76 76 76 77 77 77 78 78 78 78 78 78 78 78 78 77 77 77 76 76 76 75
65 64 64 63 62 62 61 61 61 61 61 60 60 60 60 60 60 60 60 60 60 60 60 60 61 61 61 62 63 64 64 64 65 65 66 66 67 68 68 68 68 69 69 69 69 69 69 69 69 70 70 70 70 71 71 72 72 73 73 74 74 74 75 75 76 76 76 77 77 78 78 78 78 78 78 78 78 78 78 77 77 77 77 76 76 76
61 61 60 59 59 59 58 58 58 58 58 58 58 58 58 58 58 58 58 58 58 58 59 59 59 59 60 61 61 62 63 63 64 64 65 66 67 67 68 68 68 69 70 70 70 70 70 70 70 70 70 70 71 71 72 72 73 73 73 74 74 75 75 75 76 76 77 77 77 78 78 78 79 79 79 79 78 78 78 77 77 77 77 77 76 76
58 57 57 57 56 56 56 56 56 56 56 56 56 56 56 56 56 56 57 57 57 57 57 58 58 58 59 59 60 61 62 62 62 63 64 65 66 67 67 68 68 69 70 70 70 70 70 70 71 71 71 71 71 72 72 73 73 73 74 74 75 75 76 76 76 77 77 78 78 78 79 79 79 79 79 79 79 78 78 78 77 77 77 76 76 76
55 55 54 54 54 54 54 54 54 54 54 54 54 55 55 55 55 55 55 56 56 56 56 56 57 57 58 58 58 59 60 61 61 62 62 64 65 66 67 67 68 69 70 71 71 71 71 71 72 72 72 72 72 73 73 73 74 74 74 75 75 76 76 76 77 77 78 78 78 79 79 79 79 79 79 79 79 78 78 77 77 77 76 76 76 75
53 52 52 52 52 52 53 53 53 53 53 53 53 54 54 54 54 54 55 55 55 55 55 56 56 57 57 57 57 58 59 60 60 61 62 63 64 65 66 67 67 69 70 71 71 72 72 72 73 73 73 73 74 74 74 74 75 75 75 75 76 76 76 77 77 78 78 79 79 79 80 80 80 80 80 79 79 78 78 77 76 76 76 75 75 75
51 51 51 51 51 51 51 51 52 52 52 52 52 53 53 53 53 53 54 54 54 54 54 55 56 56 56 57 57 58 58 59 60 61 61 62 63 65 66 66 67 68 70 71 72 73 73 73 74 74 75 75 75 75 75 75 76 76 76 76 76 77 77 77 78 78 79 79 79 80 80 80 80 80 80 79 79 78 77 77 76 75 74 74 74 73
50 50 50 50 50 50 50 51 51 51 51 52 52 52 52 52 52 52 53 53 53 53 54 55 55 56 56 57 57 58 58 59 60 61 61 62 63 65 65 66 67 68 70 71 73 74 74 74 75 75 76 76 76 76 77 77 77 77 77 77 77 77 77 78 78 79 79 79 80 80 80 81 81 80 80 79 79 78 77 76 75 74 73 73 72 72
48 49 49 49 49 49 50 50 50 50 51 51 51 51 51 52 52 52 53 53 53 53 54 55 55 56 56 57 57 58 59 59 60 60 61 62 63 65 66 66 67 68 69 71 73 75 76 76 76 76 77 77 77 78 78 78 78 78 78 78 78 78 78 79 79 79 80 80 81 81 81 81 81 81 80 79 78 77 76 75 74 73 72 72 71 71
48 48 48 48 48 49 49 49 49 50 50 50 50 51 51 51 52 52 52 53 53 53 54 55 55 56 56 57 57 58 59 60 60 61 61 62 64 65 66 67 68 69 69 70 72 74 76 77 78 78 78 78 79 79 79 79 79 79 79 79 79 79 79 80 80 80 81 81 82 82 82 82 82 81 80 80 78 77 76 74 73 72 71 71 70 70
47 47 47 48 48 48 48 49 49 49 49 50 50 50 51 51 51 52 52 52 53 53 54 55 55 56 57 57 58 59 60 61 61 61 62 63 65 66 66 67 68 69 70 70 72 73 76 78 79 79 79 80 80 80 80 80 80 80 80 81 81 81 81 81 81 82 82 83 83 83 83 83 82 82 81 80 79 77 76 74 73 72 71 70 70 69
47 47 47 47 48 48 48 48 49 49 49 49 50 50 50 51 51 52 52 53 53 54 54 55 56 57 57 58 59 60 60 61 62 62 63 64 65 66 67 68 69 70 71 71 72 73 75 77 78 80 80 81 81 81 81 81 81 82 82 82 82 82 82 82 83 83 84 84 84 84 84 84 83 83 82 80 79 77 76 74 73 72 71 70 70 69
46 47 47 47 48 48 48 48 48 49 49 49 50 50 50 51 51 52 52 53 54 54 55 56 57 57 58 59 60 60 61 62 62 63 63 64 66 67 68 69 70 71 72 73 74 74 75 76 78 79 80 81 82 82 82 82 82 83 83 83 84 84 84 84 84 85 85 85 86 86 85 85 84 84 83 81 80 78 77 75 73 72 71 70 70 69
46 47 47 47 47 48 48 48 49 49 49 49 50 50 51 51 52 52 53 54 55 55 56 57 57 58 59 60 61 61 62 62 63 63 64 65 66 68 69 70 71 72 73 74 75 76 77 77 78 79 80 82 82 83 83 83 83 84 84 84 85 85 85 85 85 86 86 87 87 87 86 86 85 85 84 82 81 79 77 76 74 73 72 71 70 69
46 47 47 47 48 48 48 48 49 49 49 50 50 51 51 52 52 53 54 55 56 56 57 58 58 59 60 60 61 62 63 63 64 64 65 66 67 69 70 71 72 73 74 75 76 77 78 78 79 80 80 81 83 83 83 83 84 84 85 85 86 86 86 86 86 87 87 88 88 88 87 87 86 86 85 83 82 81 79 77 76 74 73 72 71 70
47 47 48 48 48 48 48 49 49 49 50 50 51 51 52 53 54 54 55 56 57 58 58 59 60 60 61 61 62 63 64 64 65 65 66 67 68 69 71 72 73 74 75 76 77 78 78 79 80 80 81 82 83 83 84 84 84 85 86 86 87 87 87 87 87 88 88 88 88 88 88 88 87 87 86 85 83 82 80 79 77 76 75 73 72 71
47 48 48 48 48 49 49 49 50 50 50 51 52 52 53 54 55 56 57 57 58 59 60 61 61 61 62 62 63 64 64 65 66 66 67 68 69 70 72 73 74 75 76 77 78 79 79 80 81 81 82 82 83 83 84 84 85 85 86 86 87 88 88 89 89 89 89 89 89 89 89 88 88 87 87 86 84 83 82 80 79 77 76 75 74 73
48 48 49 49 49 49 50 50 50 51 52 52 53 54 55 56 56 57 58 59 60 61 61 62 63 63 63 64 64 64 65 66 67 67 68 69 70 71 72 74 75 76 77 78 79 80 80 81 81 82 82 83 83 84 84 84 84 85 86 86 87 88 89 89 89 90 90 90 90 89 89 89 88 88 87 86 86 84 83 82 80 79 78 77 76 75
49 49 49 50 50 50 51 51 52 52 53 54 55 55 56 57 58 59 60 61 61 62 63 63 64 64 65 65 65 65 66 67 67 68 69 70 71 72 73 75 76 78 79 79 80 81 81 82 82 82 83 83 84 84 84 84 84 84 85 86 87 88 89 90 90 90 90 90 90 90 89 89 89 88 88 87 87 86 84 83 82 80 79 78 78 77
50 50 50 51 51 52 52 53 53 54 55 55 56 57 58 59 60 61 61 62 63 64 64 65 65 66 66 66 66 67 67 68 69 69 70 71 72 73 74 76 77 78 80 81 81 82 82 83 83 83 83 83 83 84 84 84 84 84 84 86 87 88 89 89 90 90 90 90 90 89 89 89 89 89 88 88 87 87 86 84 83 82 81 80 79 79
51 51 52 52 53 53 54 54 55 56 56 57 58 59 60 61 61 62 63 64 64 65 66 66 67 67 68 68 68 68 68 69 70 70 71 72 73 74 75 77 78 79 80 81 83 83 83 84 84 84 84 84 84 84 84 84 84 84 84 85 86 87 88 89 89 89 89 89 89 89 89 89 89 89 89 89 88 88 87 86 85 83 82 81 80 79
52 53 53 54 54 55 55 56 57 57 58 59 60 60 61 62 63 64 64 65 66 67 67 68 68 69 69 70 70 70 70 70 71 72 72 73 74 75 77 78 79 80 81 82 83 84 84 85 85 85 84 84 84 84 84 83 84 84 84 85 86 87 88 88 88 88 88 88 88 88 88 88 89 89 89 90 90 89 88 87 86 84 83 82 81 80
54 54 55 55 56 56 57 58 58 59 60 60 61 62 63 63 64 65 66 67 67 68 68 69 69 70 71 72 72 72 72 72 73 73 74 75 75 76 77 78 79 80 81 82 83 85 85 86 86 85 85 84 84 83 83 83 83 84 84 85 85 86 87 87 87 87 88 88 88 88 88 88 89 89 90 90 90 90 89 88 87 85 83 82 81 79
55 56 56 57 57 58 59 59 60 60 61 62 63 63 64 65 65 66 67 68 68 69 70 70 71 72 73 73 74 75 75 75 75 75 75 76 76 77 78 79 80 81 82 83 84 84 85 86 86 86 85 84 84 83 83 83 83 84 84 84 85 85 86 86 86 86 87 87 87 87 87 88 89 90 90 91 91 91 90 89 87 85 83 82 80 78
57 57 58 58 59 60 60 61 61 62 63 64 64 65 65 66 67 67 68 69 70 70 71 71 72 73 75 75 76 76 77 77 77 77 77 77 78 78 79 80 81 81 82 83 84 84 85 85 86 86 85 85 84 84 83 83 84 84 84 84 85 85 85 85 85 85 85 86 86 87 87 88 89 89 90 90 91 90 89 88 87 85 83 81 79 77
58 59 59 60 60 61 62 62 63 64 64 65 66 66 67 67 68 69 69 70 71 72 73 73 74 75 76 77 77 78 79 79 79 79 79 79 79 80 80 81 81 82 83 83 84 84 85 85 85 85 85 85 85 85 84 84 84 84 84 84 84 84 85 85 85 85 85 86 86 87 87 88 89 89 89 89 89 89 88 87 85 83 81 79 77 75
60 60 61 61 62 63 63 64 64 65 66 67 67 68 68 69 69 70 71 72 72 73 74 75 76 77 78 78 79 79 80 80 81 81 81 81 81 81 82 82 82 83 83 84 84 84 85 85 85 84 85 85 85 86 85 85 84 84 84 84 84 84 84 84 84 85 85 86 87 87 88 88 88 88 88 88 87 87 86 85 84 82 79 77 75 73
61 62 62 63 64 64 65 66 66 67 68 68 69 69 70 70 71 71 72 73 74 75 76 77 78 78 79 79 80 80 80 81 82 82 82 83 83 83 83 83 84 84 84 84 84 84 85 85 85 85 85 85 85 86 86 85 84 84 83 83 83 83 84 84 84 85 86 87 87 88 88 87 87 86 86 85 85 85 84 83 82 80 77 75 73 71
63 63 64 65 65 66 67 67 68 68 69 70 70 71 71 72 72 73 74 75 76 76 77 78 79 80 80 81 81 81 82 82 83 83 83 84 84 84 84 84 85 85 85 85 85 85 85 86 86 86 85 85 85 86 86 85 84 84 83 83 83 83 84 84 85 86 87 87 88 87 87 86 85 85 84 83 82 82 81 80 79 77 75 73 70 68
64 65 65 66 67 68 68 69 69 70 71 71 72 73 73 74 74 75 75 76 77 78 78 79 80 80 81 82 82 83 83 83 84 85 85 85 85 85 85 85 85 85 86 86 86 86 86 87 88 88 88 87 86 86 86 86 85 84 84 84 84 84 85 86 86 87 87 87 87 86 86 85 84 83 82 81 80 79 78 77 76 75 73 70 68 66
Wind_Direction
279 279 279 279 279 279 279 279 279 279 279 278 278 278 278 278 278 278 279 279 279 279 279 279 279 280 280 280 280 280 280 280 280 280 280 280 280 280 279 279 279 279 279 279 279 279 279 279 279 279 279 279 279 279 279 279 279 279 278 278 278 278 278 278 278 278 277 277 277 277 277 277 277 277 277 277 277 276 276 276 276 276 276 275 275 275
279 279 279 279 279 279 279 278 278 278 278 278 278 278 278 278 278 278 278 278 279 279 279 279 279 279 280 280 280 280 280 280 280 280 280 280 280 279 279 279 279 279 279 279 279 279 279 279 279 279 279 279 279 279 279 279 279 279 278 278 278 278 278 278 277 277 277 277 277 277 277 277 277 277 277 277 276 276 276 276 276 276 275 275 275 275
279 279 279 279 279 279 278 278 278 278 278 278 278 278 278 278 278 278 278 278 278 279 279 279 279 279 279 280 280 280 280 280 280 280 280 279 279 279 279 279 279 279 279 279 279 279 279 279 279 279 279 279 279 279 279 279 279 279 278 278 278 278 278 277 277 277 277 277 277 277 277 277 277 277 277 276 276 276 276 276 276 275 275 275 275 275
279 280 279 279 279 278 278 278 278 278 278 278 278 278 278 278 278 278 278 278 278 278 279 279 279 279 279 279 279 280 280 280 280 280 279 279 279 279 279 279 279 279 279 279 279 279 279 279 279 280 280 280 280 279 279 279 279 279 278 278 278 278 278 277 277 277 277 277 277 277 277 277 277 276 276 276 276 276 276 276 275 275 275 275 274 274
279 279 279 279 279 278 278 278 278 278 278 278 278 278 278 278 278 278 278 278 278 278 279 279 279 279 279 279 279 279 280 280 279 279 279 279 279 279 279 279 279 279 279 279 279 279 279 279 280 280 280 280 280 280 279 279 279 279 278 278 278 278 278 277 277 277 277 277 277 277 277 277 276 276 276 276 276 276 275 275 275 275 275 275 274 274
279 279 279 279 279 278 278 278 278 278 278 278 278 278 278 278 278 278 278 278 278 278 278 279 279 279 279 279 279 279 279 279 279 279 279 279 279 279 279 279 279 279 279 279 279 279 279 280 280 280 280 280 280 280 279 279 279 279 279 278 278 278 278 278 277 277 277 277 277 277 277 277 276 276 276 276 276 276 275 275 275 275 275 275 274 274
279 279 279 279 278 278 278 278 278 278 278 278 278 278 277 278 278 278 278 278 278 278 278 278 279 279 279 279 279 279 279 279 279 279 279 279 279 279 279 279 279 279 279 279 279 279 280 280 280 280 280 280 280 280 279 279 279 279 279 278 278 278 278 278 278 277 277 277 277 277 277 277 276 276 276 276 276 276 275 275 275 275 275 275 274 274
279 279 279 278 278 278 278 278 277 277 278 278 278 278 278 278 278 278 278 278 278 278 278 278 278 278 278 278 278 279 279 279 279 279 279 279 279 279 279 279 279 279 279 279 279 279 280 280 280 280 280 280 280 280 279 279 279 279 279 278 278 278 278 278 278 278 277 277 277 277 277 277 276 276 276 276 276 276 276 276 275 275 275 275 275 274
279 279 278 278 278 278 278 278 277 277 277 277 278 278 278 278 278 278 278 278 278 278 278 278 278 278 278 278 278 278 278 278 278 278 278 278 279 279 279 279 279 279 279 279 279 279 279 280 280 280 280 280 280 279 279 279 279 279 279 279 278 278 278 278 278 278 278 277 277 277 277 277 277 276 276 276 276 276 276 276 276 275 275 275 275 275
278 278 278 278 278 278 278 278 278 277 277 277 278 278 278 278 278 278 278 278 278 278 278 278 278 278 278 278 278 278 278 278 278 278 278 278 278 279 279 279 279 279 279 279 279 279 279 279 279 279 279 279 279 279 279 279 279 279 279 279 279 278 278 278 278 278 278 277 277 277 277 277 277 276 276 276 276 276 276 276 276 276 275 275 275 275
278 278 278 278 277 277 277 277 277 277 277 277 278 277 277 278 278 278 278 278 278 277 277 277 277 277 277 278 278 278 278 278 278 278 278 278 278 278 278 279 279 279 279 279 279 279 279 279 279 279 279 279 279 279 279 279 279 279 279 279 279 278 278 278 278 278 278 278 277 277 277 277 277 277 277 276 276 276 276 276 276 276 276 276 275 275
278 277 277 277 277 277 277 277 277 277 277 277 277 277 277 277 277 277 277 277 277 277 277 277 277 277 277 277 277 277 278 278 278 278 278 278 278 278 278 278 278 278 278 279 279 279 279 279 279 279 279 279 279 279 279 279 279 279 279 279 279 278 278 278 278 278 278 278 277 277 277 277 277 277 277 277 276 276 276 276 276 276 276 276 276 275
277 277 277 277 276 276 276 276 277 277 277 276 276 276 276 277 277 277 277 277 277 277 277 277 277 277 277 277 277 277 277 277 277 277 278 278 278 278 278 278 278 278 278 278 278 278 279 279 279 279 279 279 279 279 279 279 279 279 279 279 279 278 278 278 278 278 278 278 277 277 277 277 277 277 277 277 277 277 277 277 276 276 276 276 276 276
277 276 276 276 276 276 276 276 276 276 276 276 276 276 276 276 276 276 276 276 276 277 277 277 277 277 277 277 277 277 277 277 277 277 277 277 277 277 277 277 277 277 278 278 278 278 278 278 278 278 279 279 279 279 279 279 279 279 279 279 279 279 278 278 278 278 278 278 278 278 278 278 278 278 278 277 277 277 277 277 277 277 277 277 277 277
276 276 276 275 275 275 275 275 275 275 275 275 275 276 276 276 276 276 276 276 276 276 276 276 276 276 276 276 276 276 276 276 276 277 277 277 277 277 277 277 277 277 277 277 277 278 278 278 278 278 278 278 279 279 279 279 279 279 279 279 279 279 279 279 278 278 278 278 278 278 278 278 278 278 278 278 278 278 278 278 278 278 278 278 278 277
276 275 275 275 275 275 275 275 275 275 275 275 275 275 275 275 275 275 275 275 275 275 275 276 276 276 276 276 276 276 276 276 276 276 276 276 276 276 277 277 277 277 277 277 277 277 277 278 278 278 278 278 278 279 279 279 279 279 279 279 279 279 279 279 279 279 279 279 279 278 278 278 278 278 278 278 278 278 278 279 278 278 278 278 278 278
275 275 275 275 275 275 275 275 275 275 275 275 275 275 275 275 275 275 275 275 275 275 275 275 275 275 275 275 275 275 275 275 275 275 275 276 276 276 276 276 276 276 276 276 277 277 277 277 277 278 278 278 278 278 278 278 278 278 279 278 279 279 279 279 279 279 279 279 279 279 279 279 279 279 279 279 279 279 279 279 279 279 278 278 278 278
275 275 275 275 275 275 275 275 275 274 274 274 274 274 274 274 274 274 274 274 274 274 274 274 274 274 274 274 275 275 275 275 275 275 275 275 275 275 275 275 275 276 276 276 276 276 276 276 277 277 277 277 278 278 278 278 278 278 278 278 278 279 279 279 279 279 279 279 279 279 279 279 279 279 279 279 279 279 279 279 279 279 278 278 278 277
275 275 275 275 275 275 274 274 274 274 274 274 274 274 273 273 273 273 273 273 273 273 273 273 273 273 273 273 274 274 274 274 274 274 274 274 274 275 275 275 275 275 275 275 276 276 276 276 276 277 277 277 277 277 278 278 278 278 278 278 279 279 279 279 279 279 279 279 280 280 280 280 280 280 280 280 280 279 279 279 279 279 278 278 278 277
275 275 275 275 274 274 274 274 274 273 273 273 273 273 273 272 272 272 272 272 272 272 272 272 272 272 272 272 273 273 273 273 273 274 274 274 274 274 274 275 275 275 275 275 275 276 276 276 276 276 277 277 277 277 278 278 278 278 278 278 279 279 279 279 279 279 280 280 280 280 280 280 280 280 280 280 280 280 280 280 279 279 279 278 278 277
275 275 274 274 274 274 273 273 273 273 272 272 272 272 272 271 271 271 271 271 271 271 271 271 271 271 272 272 272 272 272 273 273 273 273 273 273 274 274 274 274 275 275 275 275 275 276 276 276 276 276 277 277 277 277 278 278 278 278 278 279 279 279 279 279 280 280 280 280 280 280 281 281 281 281 281 281 280 280 280 280 280 279 279 279 278
275 274 274 274 273 273 273 272 272 272 272 271 271 271 270 270 270 270 270 270 270 270 270 270 270 270 271 271 271 272 272 272 272 272 273 273 273 273 274 274 274 274 275 275 275 275 275 276 276 276 276 277 277 277 277 278 278 278 278 279 279 279 279 280 280 280 280 280 281 281 281 281 281 281 281 281 281 281 281 281 281 281 280 280 280 279
274 273 273 273 272 272 272 271 271 271 270 270 270 270 269 269 269 269 269 269 269 269 269 269 270 270 270 271 271 272 272 272 273 273 273 273 273 274 274 275 275 275 275 275 276 276 276 276 276 277 277 277 277 278 278 278 278 279 279 279 279 280 280 280 280 281 281 281 281 281 282 282 282 282 282 282 282 282 282 281 281 281 281 281 280 280
273 272 272 272 271 271 270 270 270 269 269 269 269 269 268 268 268 268 268 268 268 268 269 269 269 270 270 271 271 272 272 273 273 274 274 274 274 275 275 276 276 276 276 277 277 277 278 278 278 278 278 278 278 279 279 279 279 280 280 280 280 281 281 281 281 282 282 282 282 282 282 282 282 282 282 282 282 282 282 282 282 282 282 281 281 281
271 271 270 270 270 269 269 268 268 268 268 268 268 268 268 268 267 267 268 268 268 268 268 268 269 269 270 270 271 272 273 273 274 275 275 276 276 276 277 278 278 278 279 279 279 279 280 280 280 280 280 280 280 280 280 280 280 281 281 281 282 282 282 282 283 283 283 283 283 283 283 283 283 283 283 283 282 282 282 282 282 282 282 282 282 282
270 269 269 268 268 268 267 267 267 267 267 267 267 267 267 267 267 267 267 267 268 268 268 268 268 269 270 270 271 272 273 274 275 275 276 277 277 278 278 279 280 280 281 281 281 281 281 281 281 281 281 281 281 281 281 281 282 282 282 282 283 283 283 283 283 283 284 284 284 284 283 283 283 283 283 283 283 282 282 282 282 282 282 282 282 282
268 268 267 267 267 266 266 266 266 266 266 266 266 266 266 266 267 267 267 267 268 268 268 268 268 269 270 270 271 272 273 274 275 275 276 277 278 278 279 280 281 281 282 282 282 282 282 282 282 282 282 282 282 282 282 283 283 283 283 283 283 284 284 284 284 284 284 284 284 284 284 284 283 283 283 283 283 283 282 282 282 282 282 282 282 282
266 266 266 266 265 265 265 265 265 265 265 265 266 266 266 266 266 266 267 267 268 268 268 269 269 269 270 270 271 272 273 274 275 275 276 277 278 279 280 280 281 282 282 283 283 283 283 283 283 283 283 283 283 283 284 284 284 284 284 284 284 284 284 285 285 285 285 285 285 285 284 284 284 284 283 283 283 283 283 283 283 283 283 283 283 283
265 265 265 264 264 264 264 265 265 265 265 265 265 265 266 266 266 267 267 268 268 269 269 269 270 270 271 271 272 272 273 274 275 276 277 278 278 279 280 280 281 282 282 283 283 283 283 283 283 284 284 284 284 284 285 285 285 285 285 285 285 285 285 285 286 285 286 285 285 285 285 285 285 284 284 284 284 284 283 283 283 284 284 283 283 283
264 264 264 264 264 264 264 264 264 264 265 265 265 266 266 266 267 267 268 268 269 269 270 270 271 271 272 272 273 273 274 274 275 276 277 278 278 279 280 280 281 281 282 283 284 284 284 284 284 284 285 285 285 285 286 286 286 286 286 286 286 286 287 287 287 287 287 287 287 286 286 286 286 285 285 285 285 285 284 284 284 284 284 284 284 284
263 263 263 263 264 264 264 264 264 265 265 265 266 266 267 267 268 268 269 269 270 270 271 271 272 272 273 274 274 275 275 275 276 277 278 278 279 279 280 280 281 281 282 283 284 285 285 285 285 286 286 286 286 286 287 287 287 288 288 288 288 288 288 288 288 288 288 288 288 288 288 287 287 287 286 286 286 286 286 286 286 285 285 285 285 284
263 263 263 263 263 264 264 264 264 265 265 266 266 267 267 268 268 269 270 270 271 271 272 272 273 274 274 275 275 276 276 277 277 278 278 279 279 280 280 281 282 282 282 283 284 284 285 286 287 287 287 287 287 288 288 288 289 289 289 289 290 290 290 290 290 290 290 289 289 289 289 289 288 288 288 288 287 287 287 287 287 287 286 286 286 285
262 263 263 263 263 264 264 264 265 265 266 266 267 268 268 269 269 270 271 271 272 272 273 274 274 275 275 276 276 277 277 278 278 279 280 280 281 281 281 282 282 283 283 283 284 284 285 286 287 287 288 288 288 289 289 289 290 290 290 290 291 291 291 291 291 291 291 291 290 290 290 290 290 289 289 289 289 289 289 288 288 288 287 287 287 286
262 262 263 263 263 264 264 265 265 266 267 267 268 269 269 270 271 271 272 272 273 273 274 274 275 275 276 276 277 277 278 278 279 280 281 281 282 282 282 283 283 284 284 284 284 285 285 285 286 287 287 288 288 289 289 290 290 291 291 291 291 291 292 292 292 292 292 292 291 291 291 291 291 291 290 290 290 290 290 290 289 289 289 288 288 287
262 263 263 264 264 265 265 266 266 267 268 268 269 270 270 271 271 272 273 273 273 274 274 275 275 276 276 277 278 278 279 279 280 280 281 282 282 283 283 283 284 284 284 285 285 285 285 286 286 286 287 288 288 289 289 290 291 291 291 292 292 292 292 292 292 292 292 292 292 292 292 292 292 292 292 292 292 291 291 291 291 290 290 289 289 288
263 263 264 264 265 266 266 267 268 268 269 270 270 271 271 272 272 273 273 274 274 274 275 275 275 276 277 277 278 279 280 280 281 281 282 282 283 283 284 284 284 284 285 285 285 285 286 286 286 287 287 288 288 289 290 290 291 291 292 292 292 292 292 292 292 292 292 292 292 292 292 292 292 293 293 293 293 293 292 292 292 291 291 290 289 288
263 264 265 265 266 267 267 268 269 269 270 271 271 272 272 273 273 273 274 274 274 275 275 276 276 276 277 278 279 279 280 281 282 282 283 283 283 284 284 284 284 284 285 285 285 285 285 286 286 287 287 288 288 289 290 290 291 291 292 292 293 293 293 293 293 293 293 292 292 292 293 293 293 293 293 293 293 293 293 292 292 292 291 290 290 289
264 265 265 266 267 268 268 269 270 270 271 272 272 273 273 273 274 274 274 275 275 275 276 276 277 277 278 278 279 280 281 281 282 282 283 283 283 284 284 284 284 284 284 284 285 285 285 286 286 287 287 288 288 289 289 290 291 291 292 292 293 293 293 293 293 293 293 292 293 293 293 293 293 293 294 294 294 293 293 293 292 292 291 291 290 289
265 265 266 267 268 269 269 270 271 271 272 272 273 273 273 274 274 275 275 275 276 276 277 277 278 278 279 279 280 280 281 282 282 283 283 283 283 283 284 284 284 284 284 284 285 285 285 286 286 286 287 288 288 288 289 290 290 291 291 292 292 292 292 292 292 292 292 292 293 293 293 293 294 294 294 294 294 294 293 293 293 292 292 291 291 290
266 266 267 268 269 270 270 271 271 272 272 273 273 274 274 274 275 275 275 276 276 277 278 278 279 279 279 280 280 281 281 282 282 283 283 283 283 283 283 284 284 284 284 285 285 285 285 285 286 286 286 287 288 288 289 289 290 290 291 291 291 291 292 292 292 292 292 292 293 293 293 294 294 294 294 294 294 294 293 293 293 292 292 292 291 291
266 267 268 269 270 270 271 271 272 272 273 273 274 274 275 275 275 276 276 277 277 278 278 279 279 280 280 280 281 281 282 282 282 282 283 283 283 283 283 283 284 284 284 285 285 285 285 285 286 286 286 287 287 287 288 288 289 289 290 290 290 291 291 291 291 292 292 292 293 293 293 294 294 294 294 294 294 293 293 293 293 292 292 292 291 291
267 268 269 270 270 271 271 272 272 273 273 274 274 275 275 276 276 277 277 278 278 279 279 280 280 281 281 281 281 281 281 282 282 282 282 282 283 283 283 283 284 284 284 285 285 285 285 286 286 286 286 286 287 287 288 288 288 289 289 289 289 290 290 290 290 291 291 292 292 293 293 294 294 294 294 294 294 293 293 293 293 292 292 292 291 291
268 269 269 270 271 271 272 272 273 274 274 275 275 276 276 277 277 278 278 279 279 280 281 281 281 282 282 282 282 282 282 282 282 282 282 282 282 283 283 283 283 284 284 285 285 285 285 286 286 286 286 286 287 287 287 288 288 288 289 289 289 289 290 290 290 291 291 292 292 293 293 294 294 294 294 294 294 294 293 293 292 292 292 292 291 291
269 269 270 271 271 272 273 273 274 274 275 275 276 277 277 278 278 279 279 280 280 281 282 282 283 283 283 283 283 283 283 282 282 282 282 282 282 283 283 283 284 284 284 285 285 285 286 286 286 286 286 287 287 287 287 288 288 288 288 288 289 289 289 290 290 291 292 292 292 293 293 294 294 294 294 294 294 293 293 293 292 292 292 291 291 290
269 270 271 271 272 273 274 274 275 275 276 276 277 277 278 278 279 280 280 281 282 282 283 283 284 284 284 284 284 284 284 283 283 283 283 283 283 283 283 284 284 284 285 285 285 285 286 286 286 286 287 287 287 287 288 288 288 288 288 288 289 289 289 290 290 291 292 292 293 293 293 294 294 294 294 294 294 293 293 293 292 292 292 291 291 290
270 271 272 272 273 274 274 275 276 276 277 277 278 278 279 279 280 281 281 282 283 283 284 284 284 285 285 285 285 285 285 284 284 284 284 284 284 284 284 284 284 285 285 285 285 285 286 286 287 287 288 288 288 288 288 288 288 288 288 289 289 289 290 290 291 291 292 292 293 293 294 294 294 294 294 294 294 293 293 293 292 292 292 291 291 290
271 272 273 273 274 275 275 276 277 277 278 278 279 279 280 280 281 282 282 283 284 284 285 285 285 285 285 285 285 285 286 286 286 286 286 285 285 285 285 285 285 285 285 286 286 286 286 287 287 288 288 288 289 289 288 288 288 288 289 289 290 290 291 291 292 292 293 293 294 294 294 294 294 294 294 294 294 293 293 293 292 292 292 291 291 290
272 273 274 275 275 276 276 277 277 278 278 279 279 280 281 281 282 283 283 284 284 284 285 285 285 285 285 285 286 286 286 287 287 287 287 287 287 287 287 287 287 287 287 287 287 287 288 288 288 288 289 289 289 289 289 289 289 289 289 290 291 291 292 292 293 293 294 294 295 295 295 295 295 295 294 294 294 293 293 293 292 292 292 291 291 290
273 274 275 276 276 277 277 278 278 279 279 280 281 281 282 282 283 283 284 284 284 285 285 285 285 286 286 286 286 287 287 287 288 288 288 288 288 288 288 288 288 288 288 288 289 289 289 289 289 289 289 289 289 289 289 289 289 290 290 291 292 292 293 294 294 295 295 295 295 295 295 295 295 295 294 294 294 293 293 293 293 292 292 291 290 289
275 275 276 277 277 278 278 279 279 280 281 281 282 282 283 283 283 284 284 284 285 285 285 285 286 286 287 287 287 288 288 288 288 288 288 289 289 289 289 289 289 290 290 290 291 291 291 291 291 290 290 290 290 290 290 290 291 291 292 293 293 294 295 295 296 296 296 296 296 296 296 295 295 295 294 294 294 293 293 293 292 292 291 291 290 289
276 276 277 278 278 279 280 280 281 281 281 282 282 283 283 283 284 284 284 285 285 285 286 286 286 287 287 288 288 288 289 289 289 289 289 289 289 290 290 290 291 291 292 292 292 292 293 293 293 292 292 291 291 291 291 292 292 293 294 294 295 296 296 297 297 297 297 297 297 296 296 296 295 295 294 294 294 293 293 293 292 291 291 290 289 288
Height
10579 10577 10577 10577 10576 10575 10572 10572 10572 10572 10569 10569 10569 10569 10567 10567 10565 10565 10564 10564 10563 10562 10561 10560 10560 10560 10559 10558 10557 10557 10555 10555 10554 10554 10553 10552 10552 10551 10550 10550 10549 10549 10548 10547 10547 10546 10545 10545 10545 10545 10544 10544 10544 10543 10542 10542 10542 10542 10541 10541 10540 10540 10540 10540 10540 10540 10540 10540 10540 10540 10540 10540 10540 10541 10541 10542 10542 10543 10543 10544 10544 10544 10544 10545 10545 10545
10572 10570 10569 10569 10569 10567 10565 10564 10564 10565 10563 10562 10561 10561 10561 10560 10559 10557 10557 10557 10556 10555 10555 10554 10554 10553 10552 10551 10550 10550 10549 10549 10548 10547 10547 10546 10545 10545 10544 10544 10543 10542 10541 10541 10540 10540 10539 10539 10539 10539 10538 10537 10537 10537 10536 10536 10535 10535 10535 10535 10535 10534 10534 10534 10534 10534 10534 10534 10534 10534 10534 10534 10534 10534 10535 10535 10535 10536 10536 10537 10537 10537 10538 10538 10539 10539
10564 10563 10561 10560 10561 10560 10557 10556 10556 10557 10556 10555 10554 10554 10554 10554 10552 10551 10550 10550 10549 10549 10548 10548 10547 10546 10545 10545 10544 10543 10542 10542 10541 10541 10540 10540 10539 10539 10538 10537 10536 10535 10535 10534 10534 10534 10533 10533 10532 10532 10532 10531 10531 10530 10530 10530 10529 10529 10529 10529 10528 10528 10528 10528 10527 10527 10527 10527 10527 10527 10527 10527 10527 10528 10528 10529 10529 10529 10529 10530 10530 10531 10531 10532 10532 10532
10556 10555 10553 10552 10552 10552 10550 10549 10549 10549 10549 10549 10548 10547 10547 10547 10545 10544 10544 10543 10542 10542 10541 10541 10540 10540 10539 10538 10537 10537 10536 10535 10535 10534 10534 10533 10532 10532 10531 10530 10530 10529 10529 10529 10528 10527 10527 10527 10526 10526 10525 10525 10525 10524 10524 10524 10523 10522 10522 10522 10522 10522 10522 10521 10521 10521 10520 10520 10520 10520 10520 10521 10521 10521 10521 10522 10522 10522 10522 10523 10523 10524 10524 10525 10525 10526
10548 10547 10545 10544 10544 10543 10542 10542 10542 10542 10541 10541 10540 10540 10540 10540 10539 10538 10537 10537 10535 10535 10534 10534 10534 10533 10532 10531 10530 10530 10529 10529 10528 10527 10527 10527 10526 10525 10525 10524 10524 10523 10522 10522 10522 10521 10521 10520 10520 10520 10519 10519 10519 10518 10517 10517 10517 10516 10516 10515 10515 10515 10515 10515 10515 10514 10514 10514 10514 10514 10514 10514 10514 10514 10515 10515 10515 10515 10515 10516 10516 10517 10517 10518 10519 10519
10539 10539 10539 10537 10536 10535 10534 10535 10535 10534 10534 10534 10533 10533 10533 10532 10532 10531 10530 10530 10529 10529 10528 10527 10527 10526 10525 10524 10524 10523 10522 10522 10521 10521 10520 10520 10519 10519 10519 10518 10517 10517 10517 10516 10515 10515 10515 10514 10514 10514 10513 10512 10512 10512 10511 10510 10510 10510 10510 10509 10509 10509 10509 10509 10508 10508 10508 10507 10507 10507 10507 10507 10507 10508 10508 10508 10508 10509 10509 10509 10509 10510 10510 10511 10512 10512
10531 10530 10530 10530 10529 10527 10527 10527 10527 10527 10527 10526 10525 10525 10525 10525 10525 10524 10524 10523 10522 10522 10521 10520 10520 10520 10519 10518 10517 10516 10515 10515 10515 10514 10514 10513 10513 10512 10512 10512 10511 10511 10510 10510 10509 10509 10509 10508 10507 10507 10507 10506 10505 10505 10505 10504 10504 10504 10504 10503 10503 10503 10502 10502 10502 10502 10501 10501 10501 10501 10501 10501 10501 10501 10501 10501 10501 10501 10502 10502 10502 10503 10504 10504 10505 10505
10524 10522 10522 10522 10521 10520 10520 10519 10520 10520 10520 10519 10518 10518 10517 10518 10518 10517 10517 10516 10515 10515 10514 10514 10513 10512 10512 10511 10510 10510 10509 10508 10508 10507 10507 10507 10507 10506 10505 10505 10505 10505 10504 10504 10504 10503 10502 10502 10501 10501 10500 10500 10499 10499 10499 10498 10498 10497 10497 10497 10497 10496 10496 10495 10495 10495 10495 10495 10494 10494 10494 10494 10494 10494 10494 10494 10494 10494 10495 10495 10495 10496 10496 10497 10497 10498
10517 10515 10514 10514 10514 10514 10512 10512 10512 10513 10514 10513 10512 10510 10510 10510 10510 10510 10510 10509 10509 10508 10507 10507 10506 10505 10505 10504 10504 10503 10502 10502 10501 10501 10500 10500 10500 10500 10499 10499 10499 10499 10498 10497 10497 10497 10496 10495 10495 10495 10494 10494 10493 10493 10492 10492 10492 10491 10491 10490 10490 10490 10490 10489 10489 10489 10489 10488 10488 10488 10487 10487 10487 10487 10487 10487 10487 10488 10488 10488 10489 10489 10489 10490 10490 10491
10511 10510 10508 10507 10506 10507 10506 10505 10504 10505 10506 10506 10505 10504 10504 10504 10503 10502 10502 10502 10501 10501 10500 10500 10499 10498 10498 10497 10497 10496 10495 10495 10495 10494 10494 10494 10494 10494 10493 10493 10492 10492 10492 10491 10490 10490 10490 10489 10489 10489 10488 10487 10487 10487 10486 10485 10485 10485 10485 10484 10484 10484 10483 10483 10482 10482 10482 10482 10481 10481 10481 10481 10480 10480 10480 10480 10480 10481 10481 10481 10482 10482 10482 10482 10483 10484
10504 10503 10502 10500 10500 10499 10499 10499 10497 10498 10499 10499 10498 10497 10497 10497 10496 10495 10495 10494 10494 10494 10494 10492 10492 10492 10491 10490 10490 10490 10489 10489 10489 10488 10488 10488 10487 10487 10487 10487 10486 10485 10485 10485 10484 10484 10484 10483 10482 10482 10482 10481 10481 10480 10480 10479 10479 10479 10479 10478 10477 10477 10477 10476 10476 10475 10475 10475 10475 10474 10474 10474 10474 10474 10474 10474 10474 10474 10474 10474 10475 10475 10475 10475 10476 10477
10498 10497 10495 10495 10494 10493 10492 10492 10492 10492 10492 10492 10491 10490 10490 10490 10490 10489 10489 10487 10487 10486 10486 10485 10485 10485 10484 10484 10484 10483 10483 10483 10482 10482 10481 10481 10481 10481 10481 10480 10480 10479 10479 10479 10478 10477 10477 10477 10477 10476 10475 10475 10475 10474 10474 10474 10473 10472 10472 10472 10471 10471 10470 10470 10469 10469 10469 10469 10468 10468 10467 10467 10467 10467 10467 10467 10467 10467 10467 10467 10468 10468 10469 10469 10469 10470
10492 10490 10490 10489 10487 10487 10486 10485 10485 10485 10485 10485 10484 10484 10483 10483 10483 10483 10482 10481 10480 10479 10479 10479 10478 10477 10477 10478 10477 10477 10477 10477 10476 10475 10475 10475 10475 10475 10474 10474 10474 10473 10472 10472 10472 10472 10471 10471 10470 10470 10470 10469 10469 10468 10468 10467 10467 10466 10466 10465 10465 10464 10464 10464 10463 10462 10462 10462 10462 10461 10461 10461 10460 10460 10460 10460 10460 10460 10460 10460 10461 10461 10462 10462 10462 10463
10485 10484 10484 10482 10481 10480 10480 10479 10479 10479 10478 10478 10478 10477 10477 10477 10476 10476 10475 10475 10474 10473 10473 10472 10472 10471 10470 10471 10471 10471 10470 10470 10470 10469 10469 10469 10468 10468 10468 10468 10467 10467 10467 10466 10466 10465 10465 10465 10465 10464 10464 10463 10463 10462 10462 10461 10460 10460 10459 10459 10459 10458 10457 10457 10456 10456 10455 10455 10455 10455 10454 10454 10454 10454 10454 10454 10454 10454 10454 10454 10454 10454 10455 10455 10455 10455
10479 10478 10477 10476 10475 10474 10474 10474 10473 10472 10472 10471 10471 10471 10471 10470 10470 10470 10469 10469 10467 10467 10467 10466 10465 10465 10464 10464 10464 10464 10465 10464 10464 10464 10463 10462 10462 10461 10462 10461 10461 10460 10460 10460 10460 10459 10459 10459 10459 10458 10458 10457 10457 10456 10455 10455 10454 10454 10453 10452 10452 10451 10450 10450 10450 10449 10449 10449 10449 10448 10448 10447 10447 10447 10447 10447 10447 10447 10447 10447 10447 10447 10447 10448 10448 10449
10472 10472 10470 10469 10469 10468 10467 10467 10467 10466 10465 10465 10465 10465 10465 10464 10464 10464 10464 10463 10462 10461 10460 10460 10459 10459 10458 10457 10458 10458 10459 10459 10458 10458 10457 10456 10455 10455 10455 10455 10455 10454 10454 10454 10454 10454 10454 10453 10452 10452 10452 10451 10450 10450 10450 10449 10448 10447 10447 10446 10445 10445 10444 10444 10444 10443 10442 10442 10442 10442 10441 10441 10441 10441 10440 10440 10440 10440 10440 10440 10440 10440 10440 10440 10441 10441
10466 10465 10464 10464 10462 10462 10461 10460 10460 10460 10459 10459 10459 10459 10459 10459 10458 10457 10457 10457 10456 10455 10455 10454 10453 10452 10452 10451 10451 10452 10452 10452 10452 10452 10452 10450 10450 10449 10449 10449 10448 10448 10448 10448 10448 10448 10447 10447 10447 10447 10446 10445 10445 10444 10444 10443 10442 10442 10441 10440 10440 10439 10439 10438 10437 10437 10436 10436 10435 10435 10435 10435 10434 10434 10434 10434 10434 10434 10434 10434 10434 10434 10434 10434 10434 10434
10460 10459 10458 10457 10456 10455 10455 10455 10454 10454 10454 10453 10453 10452 10452 10452 10452 10452 10452 10451 10450 10450 10449 10449 10448 10447 10446 10445 10445 10445 10445 10446 10446 10445 10445 10445 10444 10443 10443 10442 10442 10442 10442 10442 10442 10442 10442 10442 10441 10441 10440 10440 10439 10439 10438 10437 10437 10435 10435 10434 10434 10433 10432 10432 10431 10430 10430 10429 10429 10429 10429 10428 10428 10427 10427 10427 10427 10427 10427 10427 10427 10427 10427 10427 10427 10426
10453 10452 10452 10451 10450 10449 10449 10449 10448 10448 10447 10447 10447 10447 10447 10447 10446 10446 10446 10445 10445 10445 10444 10443 10442 10442 10441 10440 10440 10439 10440 10440 10440 10439 10439 10439 10438 10437 10437 10436 10436 10435 10435 10436 10436 10436 10436 10436 10435 10435 10435 10434 10434 10433 10432 10431 10430 10430 10429 10429 10428 10427 10427 10425 10425 10424 10424 10423 10422 10422 10422 10421 10421 10420 10420 10420 10420 10420 10420 10420 10420 10420 10419 10419 10419 10419
10447 10446 10446 10445 10444 10444 10443 10443 10442 10442 10442 10442 10441 10441 10441 10440 10440 10440 10440 10440 10440 10439 10439 10438 10437 10436 10435 10435 10434 10434 10434 10434 10434 10434 10433 10433 10432 10431 10431 10430 10430 10429 10429 10430 10430 10430 10430 10430 10430 10429 10429 10429 10428 10427 10427 10425 10425 10424 10424 10422 10422 10421 10420 10420 10419 10419 10418 10417 10416 10415 10415 10415 10414 10414 10414 10413 10413 10413 10413 10412 10412 10412 10412 10411 10411 10410
10441 10440 10439 10439 10439 10439 10438 10437 10437 10437 10437 10436 10436 10436 10435 10435 10435 10435 10435 10434 10434 10434 10434 10433 10432 10431 10430 10430 10429 10428 10428 10429 10428 10428 10427 10427 10426 10425 10425 10424 10424 10424 10424 10424 10424 10425 10425 10424 10424 10424 10424 10423 10422 10422 10421 10420 10419 10419 10418 10417 10416 10415 10415 10414 10413 10412 10412 10410 10410 10409 10409 10408 10407 10407 10406 10406 10405 10405 10405 10405 10405 10404 10404 10403 10403 10402
10435 10435 10434 10434 10434 10434 10432 10432 10432 10431 10431 10431 10431 10430 10430 10430 10430 10430 10429 10429 10429 10429 10428 10428 10427 10426 10425 10424 10423 10422 10422 10423 10422 10422 10421 10421 10420 10420 10419 10419 10418 10417 10417 10417 10418 10419 10419 10419 10418 10418 10418 10417 10417 10416 10415 10414 10414 10412 10412 10411 10410 10409 10409 10408 10407 10406 10405 10404 10404 10403 10402 10401 10400 10400 10399 10399 10399 10398 10398 10397 10397 10396 10396 10395 10395 10394
10430 10429 10429 10429 10428 10428 10427 10427 10427 10426 10426 10426 10425 10425 10425 10425 10425 10425 10424 10424 10424 10424 10423 10423 10422 10422 10420 10419 10418 10417 10417 10417 10417 10416 10415 10415 10414 10414 10414 10413 10412 10411 10411 10411 10412 10412 10412 10412 10412 10412 10412 10411 10410 10410 10409 10408 10407 10407 10405 10405 10404 10403 10402 10401 10400 10400 10399 10398 10397 10396 10395 10394 10394 10392 10392 10391 10391 10390 10390 10390 10389 10389 10388 10387 10387 10385
10425 10425 10424 10424 10423 10423 10422 10422 10422 10421 10421 10421 10420 10420 10420 10420 10420 10420 10419 10419 10419 10419 10419 10418 10418 10417 10416 10415 10414 10412 10412 10411 10411 10410 10410 10409 10408 10407 10407 10406 10405 10404 10404 10404 10405 10405 10405 10405 10405 10405 10405 10405 10404 10404 10402 10402 10400 10400 10399 10398 10397 10397 10395 10395 10394 10393 10392 10390 10390 10389 10388 10387 10386 10385 10384 10384 10384 10383 10383 10382 10382 10381 10380 10380 10379 10378
10420 10420 10419 10419 10419 10418 10418 10417 10417 10417 10416 10416 10416 10415 10415 10415 10415 10415 10415 10415 10414 10414 10414 10414 10414 10413 10412 10411 10410 10408 10407 10406 10406 10405 10404 10404 10402 10401 10400 10400 10399 10397 10397 10397 10397 10398 10397 10397 10397 10398 10398 10397 10397 10396 10395 10395 10394 10393 10392 10392 10390 10390 10389 10388 10387 10385 10385 10384 10382 10381 10380 10379 10379 10377 10377 10377 10376 10375 10375 10375 10375 10374 10373 10372 10371 10370
10415 10415 10415 10414 10414 10414 10413 10413 10412 10412 10412 10412 10411 10411 10411 10410 10410 10410 10410 10410 10410 10409 10409 10409 10409 10409 10408 10407 10406 10404 10403 10402 10401 10400 10400 10399 10397 10396 10395 10394 10393 10392 10390 10389 10390 10390 10390 10389 10389 10390 10390 10389 10389 10389 10388 10387 10387 10386 10385 10385 10384 10383 10382 10380 10380 10379 10377 10376 10375 10374 10373 10372 10371 10370 10369 10369 10369 10368 10368 10368 10367 10367 10366 10365 10364 10363
10411 10410 10410 10410 10409 10409 10409 10409 10408 10408 10408 10407 10407 10407 10407 10406 10406 10406 10406 10405 10405 10405 10405 10405 10404 10404 10404 10404 10402 10400 10399 10398 10397 10396 10395 10394 10393 10391 10390 10389 10389 10386 10384 10383 10383 10384 10383 10382 10382 10382 10382 10382 10382 10381 10381 10380 10380 10379 10379 10378 10377 10376 10375 10374 10372 10371 10370 10369 10367 10366 10365 10364 10363 10362 10362 10361 10360 10360 10360 10360 10360 10360 10359 10358 10357 10356
10407 10407 10406 10405 10405 10405 10405 10404 10404 10404 10404 10404 10403 10403 10402 10402 10402 10402 10401 10401 10401 10401 10400 10400 10400 10400 10399 10399 10398 10397 10396 10394 10393 10392 10392 10390 10389 10387 10386 10385 10384 10382 10380 10377 10376 10376 10377 10375 10375 10374 10374 10374 10374 10374 10373 10373 10372 10372 10371 10370 10370 10369 10368 10367 10365 10364 10362 10361 10360 10359 10357 10356 10355 10354 10354 10353 10353 10353 10353 10353 10353 10352 10352 10351 10350 10349
10403 10402 10402 10402 10402 10401 10401 10400 10400 10400 10400 10399 10399 10399 10398 10398 10398 10398 10397 10397 10397 10397 10396 10395 10395 10395 10395 10394 10394 10393 10392 10391 10389 10389 10388 10387 10385 10383 10382 10381 10380 10378 10375 10372 10370 10369 10369 10369 10369 10368 10367 10366 10366 10365 10365 10365 10364 10364 10363 10362 10362 10361 10360 10359 10357 10356 10355 10353 10352 10350 10349 10347 10347 10345 10345 10345 10344 10345 10345 10345 10345 10345 10344 10344 10342 10341
10399 10399 10399 10398 10398 10397 10397 10397 10397 10396 10396 10395 10395 10395 10395 10394 10394 10394 10393 10393 10393 10392 10392 10391 10391 10390 10390 10390 10389 10389 10388 10387 10386 10385 10384 10383 10380 10379 10379 10377 10375 10374 10372 10369 10366 10363 10361 10361 10362 10362 10360 10359 10359 10358 10357 10357 10356 10355 10355 10354 10354 10353 10352 10351 10349 10348 10346 10345 10343 10342 10340 10339 10338 10337 10336 10336 10336 10336 10336 10337 10337 10337 10336 10335 10334 10333
10395 10395 10395 10395 10394 10394 10394 10394 10393 10393 10392 10392 10392 10391 10391 10390 10390 10390 10389 10389 10389 10389 10388 10387 10387 10386 10386 10385 10385 10384 10383 10382 10382 10381 10380 10379 10376 10374 10374 10372 10370 10369 10369 10367 10364 10359 10355 10354 10354 10354 10354 10352 10351 10350 10350 10349 10348 10347 10346 10345 10344 10344 10343 10342 10341 10339 10337 10336 10334 10333 10332 10330 10329 10328 10327 10327 10327 10327 10327 10328 10328 10328 10328 10327 10326 10325
10392 10392 10392 10391 10391 10390 10390 10390 10390 10389 10389 10389 10388 10388 10387 10387 10387 10386 10385 10385 10385 10384 10384 10383 10382 10382 10381 10381 10380 10379 10378 10377 10377 10377 10375 10374 10371 10369 10369 10368 10365 10364 10364 10363 10361 10358 10354 10349 10347 10345 10345 10345 10344 10342 10342 10342 10340 10339 10338 10337 10335 10335 10334 10334 10332 10330 10329 10327 10325 10324 10322 10321 10320 10319 10318 10318 10318 10318 10318 10319 10319 10319 10319 10319 10317 10317
10389 10389 10389 10388 10388 10387 10387 10387 10386 10386 10385 10385 10385 10384 10384 10384 10383 10382 10382 10382 10381 10380 10380 10379 10378 10377 10377 10376 10375 10375 10374 10372 10372 10371 10370 10369 10366 10364 10364 10362 10360 10359 10357 10357 10356 10354 10352 10347 10344 10341 10339 10337 10337 10335 10335 10334 10333 10332 10330 10329 10328 10326 10325 10325 10324 10322 10320 10319 10317 10315 10314 10312 10310 10310 10309 10309 10309 10309 10309 10309 10309 10310 10310 10309 10309 10308
10385 10385 10385 10385 10384 10384 10384 10384 10383 10383 10382 10382 10382 10381 10380 10380 10379 10379 10379 10378 10377 10377 10375 10375 10374 10373 10372 10372 10370 10370 10369 10368 10367 10367 10366 10364 10362 10359 10358 10357 10355 10354 10352 10350 10349 10348 10347 10344 10342 10339 10335 10332 10330 10330 10329 10327 10326 10325 10324 10322 10320 10319 10318 10317 10316 10314 10312 10310 10308 10306 10305 10303 10302 10300 10300 10299 10299 10299 10299 10300 10300 10300 10300 10300 10300 10299
10382 10382 10382 10382 10381 10381 10380 10380 10380 10379 10379 10379 10378 10378 10377 10377 10376 10375 10374 10374 10373 10372 10372 10370 10370 10369 10368 10367 10366 10365 10364 10364 10363 10363 10362 10360 10357 10355 10353 10351 10350 10349 10347 10345 10344 10342 10340 10338 10337 10335 10332 10329 10325 10324 10323 10322 10320 10318 10316 10315 10314 10312 10310 10310 10309 10306 10304 10302 10300 10298 10296 10295 10293 10292 10291 10290 10290 10290 10290 10290 10290 10290 10290 10290 10290 10290
10379 10379 10379 10378 10378 10377 10377 10377 10377 10376 10375 10375 10375 10374 10374 10373 10372 10371 10370 10369 10369 10368 10367 10366 10365 10365 10364 10363 10362 10360 10359 10359 10359 10358 10357 10355 10353 10350 10348 10345 10344 10344 10342 10339 10337 10337 10335 10332 10330 10330 10328 10325 10322 10319 10317 10316 10315 10312 10310 10307 10306 10304 10303 10302 10301 10299 10297 10294 10292 10290 10289 10287 10285 10284 10282 10282 10281 10281 10280 10280 10281 10281 10281 10281 10281 10281
10376 10375 10375 10375 10375 10374 10374 10374 10373 10373 10372 10372 10371 10370 10369 10369 10368 10367 10366 10365 10364 10363 10362 10362 10361 10360 10360 10359 10358 10357 10355 10354 10354 10353 10352 10350 10349 10347 10344 10340 10339 10338 10337 10334 10332 10330 10329 10327 10325 10324 10322 10320 10318 10315 10312 10310 10309 10307 10304 10301 10299 10297 10295 10294 10292 10291 10289 10287 10285 10282 10281 10279 10277 10276 10275 10274 10273 10272 10272 10272 10272 10272 10272 10272 10272 10271
10372 10372 10372 10372 10371 10370 10370 10370 10369 10369 10369 10367 10367 10366 10365 10364 10363 10362 10361 10360 10359 10359 10357 10357 10356 10356 10355 10355 10354 10353 10352 10350 10349 10348 10347 10345 10344 10342 10339 10336 10334 10332 10331 10329 10327 10325 10324 10322 10320 10318 10316 10314 10313 10310 10309 10306 10304 10301 10298 10295 10293 10290 10288 10286 10284 10283 10281 10279 10277 10275 10274 10272 10270 10269 10267 10265 10265 10264 10264 10263 10263 10263 10263 10262 10262 10262
10369 10369 10368 10368 10367 10367 10367 10366 10365 10365 10364 10364 10362 10362 10360 10360 10359 10357 10357 10355 10355 10354 10353 10352 10352 10351 10350 10350 10350 10349 10348 10346 10345 10344 10342 10340 10339 10337 10335 10332 10329 10326 10324 10323 10322 10320 10318 10317 10315 10314 10312 10309 10307 10305 10303 10302 10300 10297 10294 10291 10287 10284 10282 10279 10277 10276 10274 10272 10270 10269 10267 10265 10263 10261 10259 10258 10257 10255 10255 10254 10254 10254 10254 10254 10253 10252
10365 10365 10364 10364 10364 10364 10363 10362 10361 10360 10360 10359 10358 10357 10356 10355 10354 10353 10352 10351 10350 10349 10348 10347 10347 10346 10346 10345 10345 10344 10343 10342 10340 10339 10337 10335 10334 10332 10329 10327 10324 10320 10319 10317 10315 10314 10312 10310 10309 10308 10307 10305 10302 10300 10297 10296 10295 10293 10290 10287 10283 10279 10275 10273 10271 10269 10267 10265 10264 10262 10260 10258 10256 10254 10252 10250 10249 10247 10247 10246 10245 10245 10245 10245 10244 10243
10362 10361 10360 10360 10360 10359 10359 10358 10357 10357 10355 10355 10354 10352 10352 10350 10349 10348 10347 10347 10345 10345 10344 10343 10342 10341 10340 10340 10340 10339 10338 10337 10335 10334 10332 10330 10328 10326 10324 10322 10319 10316 10313 10310 10308 10307 10305 10304 10302 10301 10300 10299 10298 10295 10293 10291 10289 10288 10286 10283 10279 10274 10271 10268 10265 10263 10260 10259 10257 10255 10254 10252 10249 10247 10245 10242 10240 10239 10238 10238 10237 10237 10237 10237 10236 10235
10358 10357 10357 10356 10356 10355 10354 10354 10353 10352 10351 10350 10349 10348 10347 10346 10345 10344 10342 10342 10340 10340 10339 10338 10337 10335 10335 10334 10334 10334 10333 10332 10330 10329 10327 10325 10323 10320 10319 10316 10314 10311 10309 10305 10302 10300 10299 10297 10296 10294 10293 10292 10292 10290 10287 10285 10284 10282 10280 10277 10274 10270 10267 10263 10260 10259 10256 10253 10251 10249 10247 10245 10243 10240 10237 10235 10232 10230 10230 10229 10229 10229 10229 10228 10228 10227
10354 10354 10353 10352 10352 10350 10350 10349 10349 10347 10347 10346 10345 10344 10342 10342 10340 10339 10338 10337 10335 10335 10334 10333 10332 10330 10329 10327 10327 10327 10326 10325 10325 10323 10321 10319 10317 10315 10313 10310 10308 10306 10304 10300 10297 10294 10292 10290 10289 10288 10286 10286 10285 10284 10282 10279 10277 10275 10273 10271 10269 10265 10261 10257 10255 10253 10251 10248 10245 10243 10241 10239 10236 10234 10230 10228 10225 10222 10221 10220 10220 10220 10220 10219 10219 10218
10350 10349 10349 10348 10347 10347 10345 10345 10344 10343 10342 10342 10340 10339 10338 10337 10336 10335 10334 10332 10330 10329 10329 10327 10326 10325 10323 10321 10320 10319 10318 10318 10317 10317 10315 10314 10312 10309 10307 10305 10302 10300 10298 10295 10292 10289 10285 10283 10281 10280 10279 10279 10278 10277 10275 10273 10271 10269 10266 10264 10262 10259 10255 10252 10250 10247 10245 10242 10239 10237 10235 10232 10230 10227 10224 10221 10218 10215 10212 10211 10210 10210 10210 10210 10210 10209
10345 10345 10344 10344 10343 10342 10341 10340 10339 10339 10338 10337 10335 10335 10334 10332 10332 10330 10329 10327 10325 10324 10323 10322 10320 10319 10316 10314 10313 10312 10310 10309 10309 10309 10308 10307 10305 10304 10302 10299 10296 10294 10292 10289 10286 10284 10280 10277 10274 10272 10271 10271 10270 10269 10267 10266 10264 10262 10259 10257 10255 10252 10249 10247 10245 10242 10240 10236 10234 10231 10229 10227 10224 10220 10217 10214 10210 10207 10204 10203 10202 10201 10201 10201 10200 10200
10342 10340 10340 10339 10339 10338 10337 10336 10335 10334 10333 10332 10331 10330 10329 10328 10327 10325 10324 10322 10320 10319 10317 10316 10314 10312 10309 10307 10305 10304 10303 10301 10300 10300 10300 10299 10298 10297 10295 10292 10290 10287 10285 10282 10279 10277 10274 10272 10269 10266 10264 10262 10261 10260 10259 10258 10257 10254 10252 10250 10247 10245 10242 10240 10238 10236 10234 10230 10227 10225 10222 10220 10217 10214 10210 10206 10202 10199 10196 10194 10193 10192 10192 10192 10192 10190
10337 10337 10335 10335 10334 10333 10332 10331 10330 10329 10328 10327 10326 10325 10324 10323 10322 10320 10319 10317 10315 10314 10311 10310 10308 10306 10304 10301 10299 10298 10296 10294 10292 10292 10291 10290 10290 10289 10287 10285 10283 10280 10278 10275 10272 10269 10267 10264 10262 10260 10258 10255 10253 10250 10249 10249 10248 10247 10244 10242 10240 10238 10235 10233 10230 10229 10226 10224 10220 10217 10215 10212 10209 10206 10203 10199 10195 10192 10188 10185 10184 10184 10184 10183 10183 10182
10333 10332 10331 10330 10329 10329 10327 10327 10325 10324 10323 10322 10321 10320 10319 10318 10317 10315 10313 10311 10310 10308 10305 10304 10301 10299 10297 10295 10294 10292 10290 10288 10285 10284 10283 10282 10280 10279 10278 10276 10274 10272 10270 10267 10265 10262 10259 10257 10254 10252 10250 10248 10245 10242 10240 10239 10239 10238 10236 10235 10233 10231 10228 10225 10223 10220 10218 10215 10212 10209 10207 10204 10201 10198 10195 10192 10188 10184 10180 10177 10175 10175 10175 10175 10174 10174
10329 10327 10326 10325 10325 10324 10322 10322 10320 10319 10318 10317 10315 10314 10313 10312 10312 10310 10307 10305 10304 10302 10300 10297 10295 10293 10290 10289 10287 10285 10284 10282 10279 10277 10275 10274 10272 10270 10269 10267 10265 10264 10261 10259 10256 10254 10251 10248 10245 10243 10242 10240 10238 10234 10232 10230 10230 10230 10229 10227 10225 10223 10220 10218 10215 10213 10210 10207 10203 10200 10198 10195 10193 10190 10187 10184 10181 10177 10174 10170 10168 10167 10166 10166 10165 10165
10324 10322 10322 10320 10320 10319 10317 10316 10315 10314 10313 10312 10310 10309 10307 10306 10305 10304 10302 10300 10298 10295 10294 10292 10289 10287 10284 10282 10280 10279 10277 10275 10272 10270 10269 10267 10265 10264 10262 10260 10258 10255 10253 10250 10248 10245 10242 10239 10235 10232 10231 10230 10229 10227 10224 10222 10221 10221 10220 10219 10217 10215 10212 10210 10207 10204 10201 10198 10194 10191 10189 10185 10184 10182 10179 10177 10174 10170 10167 10164 10160 10159 10158 10158 10157 10157
10319 10318 10317 10316 10315 10314 10312 10311 10310 10309 10307 10305 10304 10303 10301 10300 10299 10297 10295 10294 10292 10290 10287 10285 10284 10281 10279 10276 10274 10272 10270 10268 10265 10264 10261 10260 10259 10257 10255 10253 10251 10249 10247 10243 10240 10237 10234 10230 10226 10221 10218 10217 10217 10217 10215 10214 10212 10212 10210 10209 10207 10205 10204 10200 10198 10195 10192 10189 10185 10182 10180 10177 10174 10172 10170 10168 10165 10162 10160 10157 10154 10151 10150 10150 10149 10149